Location: Stillwell
(40.4602°N, 82.0928°W)
Time: 09:47:00
(UTC-04:00)

Landsat 7 - Pass Details

Date: 25 May 2018
Orbit: 701 x 703 km, 98.2° (Epoch: 17 June)

Event Time Altitude Azimuth Distance (km) Brightness Sun altitude
Exits shadow 23:14:37 49° 174° (S) 900 4.0 -21.3°
Maximum altitude 23:15:54 84° 256° (WSW) 712 3.7 -21.5°
Drops below altitude 10° 23:20:41 10° 346° (NNW) 2,177 7.4 -21.9°
Sets 23:22:57 0° 347° (NNW) 3,100 8.4 -22.2°
